Wind_Speed
5 5 4 3 1 0 2 3 5 4 2 3 4 4 4 5 4 2 1 1 2 8 11 13 12 11 11 11 12 14 15 15 14 14 13 12 11 10 10 9 8 8 6 4 4 4 3 4 4 3 3 2 1 1 1 1 0 2 2 3 5 7 9 10 9 8 10 12 13 15 17 17 16 16 16 17 16 15 15 15 14 14 14 15 16 18
6 3 2 2 4 3 3 2 2 1 2 3 5 5 5 6 3 3 1 1 4 8 9 10 12 10 10 11 13 15 15 16 16 16 16 14 12 11 11 10 9 8 7 6 5 4 4 4 4 3 3 2 1 1 1 1 1 2 2 1 3 5 7 10 11 10 10 11 13 16 17 17 18 18 17 18 17 16 17 18 18 17 16 15 16 18
4 2 5 4 3 1 0 0 2 3 4 4 5 5 5 5 3 3 2 1 5 8 7 10 12 9 9 10 11 15 15 14 15 16 16 15 13 12 11 10 10 9 8 7 6 5 4 4 4 4 3 2 2 1 1 1 0 1 1 1 2 3 4 6 9 10 10 11 13 14 14 16 18 19 18 18 18 17 17 18 20 20 19 18 16 19
2 4 5 3 1 2 2 2 4 4 5 5 5 6 6 4 4 3 3 3 6 7 5 9 11 7 7 9 10 14 15 14 15 16 15 15 14 12 11 9 9 9 9 8 7 6 5 4 5 5 4 4 3 2 2 2 1 0 1 1 2 2 4 5 7 8 9 12 14 13 13 15 17 19 19 19 20 19 18 18 18 19 20 20 19 20
4 6 3 0 1 3 2 3 5 6 5 4 5 6 6 3 5 4 2 4 6 6 5 8 9 6 8 11 10 11 13 13 15 16 15 15 15 12 10 9 8 9 9 8 7 6 6 5 4 5 6 5 4 3 2 2 2 1 1 1 1 2 4 4 5 7 8 10 12 13 14 15 17 19 19 20 22 21 20 19 18 18 19 20 21 22
6 5 0 3 3 3 4 3 3 5 5 4 3 4 5 5 4 3 2 4 6 6 8 9 9 6 10 13 11 9 11 12 14 15 16 16 16 14 12 10 10 10 9 8 8 7 7 6 5 5 6 6 4 3 3 2 2 2 2 1 1 2 4 5 5 6 8 10 11 13 14 14 16 18 19 20 21 21 21 20 20 20 20 20 21 22
4 3 1 2 3 3 5 4 1 4 7 4 1 2 4 5 5 5 5 7 6 2 5 9 9 6 9 13 12 11 12 13 13 14 15 16 17 16 14 13 12 12 10 10 9 8 8 7 6 5 5 5 4 3 3 3 2 3 3 2 1 1 2 4 5 6 7 9 10 12 13 14 16 17 18 19 19 20 21 21 21 22 22 21 20 21
4 3 3 3 5 5 6 4 1 3 8 3 2 2 6 6 6 7 7 8 5 2 2 8 10 7 6 10 13 14 14 15 14 14 16 18 17 16 14 13 13 13 12 11 11 10 9 8 7 5 5 5 4 3 4 4 3 2 2 2 2 1 1 2 4 6 6 7 8 10 13 15 16 18 19 19 19 21 20 21 23 23 23 24 22 21
2 2 2 3 6 6 5 2 2 4 7 2 2 3 6 6 7 7 7 7 5 3 5 8 9 9 7 6 11 13 14 16 17 16 17 18 17 16 15 14 14 13 12 12 12 12 11 9 7 6 5 4 4 4 4 4 4 2 2 2 2 2 2 2 3 5 6 7 9 10 12 14 15 17 18 18 19 20 19 21 23 23 24 25 26 24
1 1 3 5 6 4 3 1 0 5 5 1 1 5 5 6 7 7 7 7 5 6 8 7 9 9 8 6 8 10 11 14 14 12 14 17 16 16 15 15 15 14 13 12 12 12 11 10 8 7 6 4 3 3 3 3 3 3 2 2 2 2 2 2 3 5 6 7 10 11 13 14 14 14 15 16 17 18 18 19 22 24 25 27 29 28
2 0 2 4 5 5 4 1 1 3 2 1 4 7 7 7 7 6 6 6 6 6 10 11 9 8 8 6 7 8 9 11 11 10 12 16 17 17 17 17 17 16 15 14 13 13 12 11 9 7 6 5 3 2 2 2 2 2 2 2 2 2 2 1 2 4 6 7 9 11 13 14 14 13 15 16 16 17 17 18 20 22 25 27 30 29
3 5 3 2 3 5 5 5 3 2 4 5 6 7 7 7 6 6 7 6 7 8 8 9 9 8 9 7 5 6 8 11 12 11 13 16 18 19 18 19 19 17 16 16 15 14 13 12 10 8 7 6 4 3 2 2 2 2 2 3 2 2 2 2 2 3 5 7 8 10 13 13 13 14 15 15 15 16 17 18 18 20 23 26 28 28
4 3 1 2 2 4 7 6 5 6 6 7 7 7 7 6 5 6 7 6 8 7 4 4 6 8 9 8 5 4 6 9 10 11 13 16 19 20 19 19 20 19 18 17 16 15 14 13 11 10 9 8 6 4 3 2 2 2 2 3 3 2 2 3 3 2 4 6 7 9 10 12 13 13 15 15 14 15 16 17 18 18 20 22 24 27
3 3 4 5 4 3 6 6 5 5 6 7 7 6 7 7 6 7 7 6 7 6 4 4 4 8 8 7 6 5 4 4 4 7 9 10 15 18 19 19 20 20 20 19 17 16 15 13 12 11 10 9 7 5 3 2 1 2 1 3 3 2 4 4 4 3 3 5 6 7 8 9 11 12 14 14 14 15 15 17 17 17 18 19 21 24
4 2 4 3 1 1 5 4 4 5 6 7 5 6 8 6 4 5 6 6 6 5 4 5 4 7 6 1 2 2 1 1 2 4 6 7 10 13 16 19 20 20 21 19 18 17 15 14 13 11 11 9 7 5 3 1 0 1 1 2 3 3 4 5 4 4 4 5 6 7 8 8 9 10 11 12 13 14 15 16 18 18 18 18 20 21
6 3 3 2 1 2 4 1 3 6 6 4 3 7 7 4 4 4 4 4 5 5 5 5 5 5 2 4 5 3 2 3 4 4 6 8 10 11 14 17 19 20 20 20 19 18 16 15 13 12 10 9 6 4 3 2 1 0 1 2 3 4 4 5 5 5 5 5 5 6 7 8 9 10 10 10 11 12 14 15 16 17 17 18 18 19
6 2 6 3 2 1 3 2 2 5 3 2 4 5 2 2 4 6 3 0 2 7 7 6 7 5 4 5 7 6 5 5 5 5 7 8 10 13 15 17 19 21 21 21 20 19 17 15 14 12 10 8 6 4 4 2 3 2 1 2 3 4 5 5 6 6 6 5 5 5 6 7 8 9 10 11 11 12 13 14 15 16 16 17 17 18
5 3 6 5 3 3 0 2 3 3 4 3 3 1 2 1 4 6 5 3 5 8 7 7 9 8 7 5 5 6 6 7 7 6 6 7 9 13 15 17 19 20 20 20 19 18 17 16 14 12 10 8 6 5 3 3 4 4 3 3 3 5 6 6 6 7 7 6 5 5 5 6 6 7 9 11 12 12 13 14 14 16 17 17 17 17
3 5 4 5 3 4 4 5 4 4 4 5 3 2 2 3 4 5 5 5 7 7 6 8 9 7 8 6 4 5 7 7 5 4 5 7 10 12 13 15 17 18 19 20 19 18 17 16 14 12 10 8 7 5 3 4 3 4 4 4 4 5 6 6 6 7 7 7 6 6 5 5 5 5 7 9 11 13 14 14 14 15 17 18 17 16
2 5 2 5 3 2 4 6 4 4 5 4 4 3 4 4 3 4 4 4 6 6 6 8 7 6 5 3 2 3 4 4 5 4 6 9 10 11 12 13 15 17 19 20 19 18 17 16 14 12 10 8 7 4 4 4 4 4 6 5 5 5 6 6 6 7 7 7 6 6 6 5 4 4 5 6 8 10 13 14 15 16 17 17 16 15
3 4 3 4 5 4 5 3 3 4 3 4 5 5 5 3 3 4 5 5 6 6 6 7 7 5 1 3 1 3 4 4 5 6 7 9 10 11 11 12 14 16 18 19 18 17 17 16 14 12 10 8 6 5 4 5 5 6 6 6 5 5 5 6 6 7 7 6 7 7 7 7 6 6 6 5 5 7 8 10 13 14 15 16 16 15
4 3 4 4 4 5 2 2 2 4 4 5 4 4 5 5 4 5 6 6 5 6 7 7 8 6 2 3 2 4 3 2 3 4 6 7 8 9 10 12 14 16 18 18 18 17 17 16 14 12 10 8 6 5 6 6 7 8 7 6 6 5 5 6 7 7 8 7 7 8 8 8 8 8 9 8 6 6 6 7 10 12 13 15 16 15
2 3 6 6 6 4 1 3 1 3 4 7 6 5 5 4 5 6 6 4 4 6 6 7 9 6 2 2 1 2 1 1 2 4 5 6 5 6 9 11 13 15 16 18 18 16 16 14 13 12 10 8 7 7 8 9 9 8 8 7 6 5 5 6 7 7 8 8 8 9 9 9 9 10 11 10 8 8 8 8 9 10 11 13 14 14
2 4 6 6 6 4 2 4 3 3 5 7 6 6 6 5 5 6 6 5 5 6 6 6 9 6 2 4 3 3 3 3 3 4 6 6 4 5 7 10 12 13 15 17 17 17 15 15 14 12 10 8 9 10 10 10 9 9 9 8 7 7 6 6 7 7 7 8 8 9 9 10 10 10 10 10 9 8 9 9 8 7 7 9 11 12
5 4 5 5 6 5 5 4 5 5 5 6 6 6 6 7 6 5 5 5 6 9 9 8 8 5 2 6 4 4 5 6 7 7 7 6 5 5 6 8 10 12 14 17 18 18 17 16 15 12 10 10 10 11 11 10 10 10 10 9 8 8 7 6 7 7 7 8 9 9 10 10 10 10 10 10 8 8 8 8 7 7 6 6 8 11
5 4 4 6 6 6 6 4 2 2 3 5 6 6 8 9 9 6 6 6 7 8 8 8 8 7 3 3 4 6 6 7 8 8 7 7 6 5 6 8 10 12 15 17 19 19 18 17 15 13 11 11 11 12 12 11 11 11 11 11 10 8 7 7 7 7 8 9 10 10 10 10 10 10 10 10 9 7 7 8 7 6 6 6 7 10
5 5 6 8 8 7 7 6 4 3 5 6 7 8 9 9 10 8 6 7 7 6 8 9 9 11 10 7 7 8 8 7 7 7 8 7 6 6 7 9 10 12 15 17 19 19 18 17 15 14 13 12 12 12 12 12 12 12 12 12 10 9 8 8 8 8 9 9 9 9 9 9 9 9 9 10 8 6 5 6 7 5 4 5 7 9
4 6 8 10 10 9 10 9 6 5 8 9 9 9 10 9 10 10 9 10 8 7 8 8 8 11 11 10 10 10 9 8 8 8 9 8 7 7 8 10 11 13 15 17 19 20 20 18 16 15 15 14 13 13 13 12 13 13 13 12 11 10 9 9 8 8 8 9 9 8 8 8 7 7 7 7 6 4 3 3 5 5 5 5 6 7
5 7 7 8 10 10 10 10 8 8 9 10 10 11 11 11 12 13 13 14 11 9 10 11 12 14 13 12 12 11 10 9 8 9 10 10 10 10 10 11 13 15 16 19 20 21 21 19 18 16 16 15 14 14 13 13 14 14 14 13 12 11 10 9 8 7 8 8 8 7 7 6 5 5 5 5 5 4 4 4 4 5 6 6 6 7
6 5 5 6 9 10 10 9 8 9 11 11 12 13 13 13 14 14 15 15 15 15 15 15 17 17 14 13 13 10 8 7 7 8 8 9 11 12 12 13 14 16 17 20 22 22 22 21 19 18 17 16 15 15 14 14 14 14 14 13 12 11 10 9 8 7 7 7 8 7 6 6 5 5 5 4 4 4 4 4 5 5 6 7 7 8
6 4 4 5 7 9 9 8 7 9 11 12 13 13 13 14 14 15 15 14 14 16 17 16 16 14 12 12 11 8 7 7 7 8 8 9 10 11 13 15 16 17 18 20 22 22 22 22 20 19 18 17 16 15 15 14 15 14 14 13 12 11 9 8 7 7 7 7 7 6 5 5 6 5 5 5 5 6 6 6 6 5 5 8 9 7
7 5 4 5 7 8 6 6 7 8 10 13 15 15 15 15 14 13 13 12 13 14 15 14 12 10 8 8 7 8 9 9 9 9 9 9 9 10 12 14 16 17 18 20 21 22 23 22 21 20 19 17 17 16 15 15 15 14 14 13 12 10 9 8 7 7 7 7 6 6 5 5 5 6 7 7 8 9 9 9 8 6 6 11 11 6
8 7 5 5 7 7 5 5 6 7 9 11 10 9 10 10 10 11 11 12 14 13 11 10 8 8 8 7 7 8 8 9 10 10 9 9 9 10 12 14 15 17 18 19 20 22 23 22 21 21 19 18 17 17 16 15 15 14 14 12 11 10 8 7 7 7 7 7 6 6 6 6 6 6 7 8 9 11 11 10 9 8 7 11 11 6
9 9 6 5 6 7 6 4 6 9 10 6 1 2 3 5 7 9 10 11 12 12 11 11 11 11 11 10 9 9 8 8 9 9 8 8 9 10 11 13 14 15 17 19 20 21 22 22 21 20 19 18 17 16 15 15 14 14 13 12 11 10 8 7 7 7 7 7 6 6 6 6 7 7 8 9 10 11 10 10 10 8 7 9 10 6
9 9 7 6 6 7 6 4 7 9 6 1 1 2 3 6 8 10 12 13 13 13 14 15 14 14 13 12 11 10 10 10 9 10 10 10 10 10 10 11 12 14 16 18 19 20 21 21 21 20 19 18 18 17 15 14 13 13 13 12 11 10 8 7 7 7 7 7 7 7 7 7 7 7 8 10 12 11 9 10 10 7 5 7 8 5
9 8 6 6 6 6 5 6 8 7 4 4 7 4 1 3 6 7 9 11 11 13 13 14 14 13 12 11 10 9 9 8 9 12 13 12 12 12 11 10 11 13 16 17 19 20 21 21 21 20 19 19 18 17 16 14 14 14 13 12 11 10 9 8 8 8 8 7 7 7 7 7 7 7 8 10 12 10 8 10 10 6 4 6 7 5
10 8 6 6 7 6 7 8 8 9 9 9 9 4 4 3 2 1 5 8 8 10 11 11 11 9 8 8 6 5 5 5 8 10 10 11 11 12 11 10 10 12 15 16 18 19 20 20 20 19 18 18 18 18 17 16 15 14 13 12 12 11 10 9 9 9 9 8 8 7 7 7 7 8 10 11 10 9 8 9 8 5 4 5 6 6
11 9 7 7 6 5 7 8 8 10 9 5 2 5 6 3 2 2 7 8 5 6 7 8 7 5 4 4 3 3 3 5 7 4 5 7 9 10 11 10 10 12 14 16 17 18 19 19 17 17 18 19 19 18 17 17 16 15 14 14 13 12 11 10 10 10 10 10 9 7 7 7 7 8 10 9 8 8 8 7 5 3 2 3 4 6
11 9 8 8 6 6 7 8 8 8 7 4 1 6 9 5 2 3 8 5 2 4 4 4 3 2 3 2 3 4 4 6 5 1 4 4 7 9 11 11 12 13 15 17 17 18 18 18 17 17 18 19 19 19 19 18 17 16 15 14 14 13 12 11 11 11 11 10 9 9 8 7 6 8 9 6 5 5 4 3 2 2 2 3 4 6
10 9 9 9 9 8 9 9 8 7 6 4 2 5 10 6 1 6 8 2 5 6 4 3 1 0 1 2 4 4 5 6 4 5 4 3 7 8 10 11 13 15 15 15 16 16 16 17 18 19 19 20 20 20 21 20 18 17 16 14 14 13 13 12 12 11 11 10 10 11 11 8 6 7 6 4 3 2 1 1 1 2 3 3 3 5
8 8 9 10 10 10 10 9 8 7 7 7 7 8 10 5 3 7 6 1 5 4 2 2 1 1 2 3 3 4 3 3 3 3 1 3 5 7 9 11 13 15 14 14 16 17 16 17 19 19 20 21 20 20 21 20 18 17 16 15 14 14 12 12 12 12 12 10 9 10 10 9 6 5 4 3 3 2 1 2 2 2 3 3 4 6
7 7 8 9 10 9 9 9 9 8 6 7 8 10 11 5 6 7 2 4 3 1 1 2 2 2 3 2 2 4 3 2 2 2 2 3 4 6 9 11 13 15 14 15 17 19 17 17 18 18 18 19 19 20 22 22 19 16 16 15 14 13 12 12 12 12 11 10 9 8 8 9 8 4 3 4 3 3 2 2 2 3 3 4 6 8
6 6 7 8 8 8 8 8 9 7 3 7 8 8 10 7 4 2 2 2 1 1 2 2 1 1 2 2 2 3 3 2 2 3 3 5 6 6 8 11 14 15 16 18 19 20 18 17 18 19 18 19 20 21 23 22 19 15 15 14 12 11 11 12 12 12 10 10 9 8 8 8 7 3 4 5 3 3 3 3 3 4 4 5 7 9
7 8 8 6 6 7 8 8 8 6 4 14 11 5 9 11 4 3 3 4 3 3 4 4 3 3 3 3 3 4 4 3 3 3 4 6 7 8 10 12 14 15 16 18 18 19 20 19 18 19 19 20 20 21 22 21 19 16 14 12 10 10 11 11 11 11 10 10 9 9 8 6 4 4 5 5 4 3 3 3 4 4 5 7 8 9
6 6 5 4 6 8 8 7 7 5 5 13 11 5 7 11 8 5 7 9 8 7 7 6 6 5 5 4 4 4 5 4 4 3 3 5 7 9 11 11 12 14 16 17 18 20 22 20 18 18 19 19 20 20 20 19 17 16 13 10 10 11 11 11 11 11 10 10 9 9 9 7 6 7 6 6 5 4 4 4 4 5 7 9 9 9
6 5 4 4 6 9 11 11 10 9 8 10 11 9 7 9 9 9 10 11 10 8 8 8 8 7 6 6 6 6 6 5 4 4 3 4 6 9 11 11 11 11 13 17 21 23 21 19 18 19 19 19 18 17 17 17 16 15 12 11 11 11 11 11 11 11 10 10 10 10 9 8 7 7 7 7 5 5 5 5 5 6 8 9 10 9
8 7 7 7 6 6 8 10 12 14 13 11 10 11 10 10 9 8 8 8 6 6 6 7 9 9 9 9 9 9 8 6 6 5 4 4 5 7 10 12 10 8 9 14 21 24 23 21 20 20 18 16 15 15 17 17 16 14 13 12 12 12 11 11 11 10 10 10 10 10 10 9 8 8 8 7 7 6 6 6 7 8 8 9 10 11
3 3 5 9 9 7 6 6 6 9 10 10 10 11 10 8 7 6 5 4 2 2 3 4 5 7 9 10 10 10 9 9 8 7 6 5 5 5 7 10 11 9 8 11 17 22 23 22 20 17 16 15 14 14 16 17 15 14 13 13 13 12 12 12 11 10 10 10 10 10 10 9 10 9 9 8 8 7 7 7 7 8 8 9 10 10
7 6 5 7 8 9 10 9 8 8 7 6 8 8 6 7 7 6 5 3 1 1 3 4 5 5 6 9 11 10 10 11 10 8 8 7 7 5 6 9 11 12 10 10 13 17 20 19 17 16 16 14 13 13 15 16 16 16 15 14 14 13 12 12 11 10 9 10 11 11 10 10 10 10 10 10 8 7 8 9 9 9 9 10 11 12
7 7 7 7 7 7 6 5 6 8 6 3 4 5 6 5 4 4 4 3 2 2 3 4 5 6 6 6 9 12 13 11 10 10 9 9 9 8 6 7 11 13 13 11 12 15 16 17 17 16 14 13 13 14 16 18 18 17 16 15 14 14 13 12 11 10 10 10 10 11 10 11 11 10 11 10 8 7 8 10 11 12 12 13 14 16
10 6 4 6 8 7 6 7 7 6 5 3 3 4 5 4 3 4 4 4 3 4 5 6 7 6 6 7 7 10 14 12 10 11 10 9 10 9 7 7 9 13 15 14 13 14 15 16 17 16 14 13 15 16 18 19 19 18 17 16 15 15 14 12 11 10 10 10 10 11 11 11 11 11 11 10 8 7 7 7 9 11 13 14 14 16
Wind_Direction
222 198 196 219 186 57 30 343 334 356 329 282 248 240 242 240 220 172 64 49 233 241 229 223 230 217 187 179 179 181 182 177 172 171 171 170 172 177 174 170 164 161 166 159 134 124 119 124 121 102 99 89 52 76 88 72 211 238 232 199 192 200 195 196 210 217 220 220 220 223 224 224 225 229 232 233 234 235 235 230 229 235 232 225 225 225
228 215 116 11 12 15 10 357 320 271 239 251 248 240 224 233 223 110 50 285 218 237 228 215 229 216 187 182 179 180 183 179 176 173 176 180 181 184 179 167 163 162 165 153 137 127 109 112 126 114 103 107 88 49 69 69 318 289 284 250 234 232 210 203 207 210 222 229 225 226 227 227 229 235 238 234 232 232 235 237 236 233 234 230 226 225
202 105 73 33 20 17 297 211 239 229 233 238 239 248 235 233 246 147 162 227 203 228 223 202 219 210 181 188 183 184 187 180 181 180 179 184 184 187 182 164 163 164 158 151 138 124 111 114 122 109 99 100 101 92 71 79 72 336 314 292 269 267 250 236 224 214 221 233 231 232 236 235 236 239 240 235 232 231 232 239 240 234 231 230 228 227
152 85 63 39 27 217 168 160 225 218 219 242 243 249 245 238 268 231 165 164 195 227 244 206 209 195 175 194 190 191 189 179 188 187 181 188 191 191 185 168 166 163 156 148 130 119 111 108 110 107 106 102 96 92 72 53 44 31 322 305 280 274 263 257 254 239 231 236 235 236 242 242 241 242 241 236 233 232 232 235 237 233 230 229 229 229
86 78 59 36 236 244 203 176 228 239 224 240 264 275 274 257 275 289 108 148 184 210 236 210 207 195 187 201 190 188 190 182 188 187 182 192 195 194 189 175 170 163 156 143 130 127 118 110 107 95 88 85 84 84 77 66 58 34 1 345 312 297 285 266 259 251 242 244 243 241 242 240 240 242 241 237 234 234 236 236 234 232 232 231 231 232
93 81 297 214 202 235 244 221 232 273 260 229 257 317 312 284 271 269 180 199 210 208 207 209 225 209 192 204 191 182 194 186 186 188 188 192 190 191 192 183 175 168 157 144 140 141 132 125 117 93 80 77 79 86 94 88 71 53 36 20 1 331 310 297 277 250 237 240 243 244 244 239 240 244 244 243 240 239 241 241 237 234 233 232 232 233
105 111 262 239 227 226 247 253 175 278 271 242 204 344 302 275 254 238 229 238 250 236 183 208 241 223 188 202 192 185 200 195 190 193 195 196 189 188 191 184 176 171 162 152 150 150 141 137 132 117 103 100 99 103 102 85 64 50 35 27 23 354 309 305 300 279 255 244 240 244 246 242 240 244 247 248 246 245 246 246 243 238 235 233 231 231
124 159 205 232 249 239 243 254 138 255 271 274 77 287 270 264 254 251 253 255 270 348 163 209 241 246 211 204 189 185 198 200 198 198 199 202 196 191 190 183 177 173 166 160 160 157 152 148 147 144 134 124 117 106 94 74 57 46 29 26 22 339 322 327 310 293 279 265 251 246 249 248 244 243 246 249 250 248 247 247 245 240 236 235 234 232
145 219 224 248 253 250 255 286 51 263 268 332 44 270 265 268 264 262 262 260 259 260 233 206 214 244 240 196 182 189 202 206 202 199 200 202 198 194 192 185 179 175 169 167 165 162 160 159 161 160 149 136 119 110 94 70 53 46 37 20 12 336 333 346 308 281 271 262 251 245 246 251 250 246 245 246 249 248 243 243 244 242 238 234 235 234
114 328 336 290 268 275 301 4 312 265 268 32 311 246 242 249 253 254 255 256 244 240 253 224 197 233 243 184 175 196 211 214 204 200 203 203 198 194 192 187 183 178 174 172 169 165 165 165 170 171 162 154 131 113 95 74 56 46 44 17 8 348 327 316 271 266 265 256 249 246 245 248 249 246 244 242 246 246 240 239 240 241 240 237 237 237
100 165 271 270 285 317 319 263 223 282 286 221 237 238 237 242 243 249 252 254 252 236 249 246 219 233 250 210 186 196 215 220 207 204 208 204 201 196 194 192 186 182 178 176 173 169 168 170 175 175 170 178 168 134 112 93 68 44 30 13 12 353 336 314 257 252 257 257 253 249 247 248 246 242 245 243 242 243 239 237 238 239 239 238 238 237
194 210 207 214 286 301 267 234 210 233 241 230 239 245 248 246 234 244 241 231 249 247 240 241 226 230 249 243 208 181 200 218 211 211 212 207 204 200 196 194 188 185 182 179 177 173 171 175 177 177 180 187 181 162 137 102 74 38 11 6 11 345 338 330 289 246 247 255 257 254 251 250 245 240 245 246 241 241 240 238 240 241 241 239 236 234
226 207 160 165 197 253 254 241 212 214 225 229 240 245 246 245 227 234 240 227 244 248 210 203 221 232 247 254 245 171 186 216 216 220 224 218 215 208 198 193 189 187 184 182 180 176 175 179 180 182 185 185 182 177 151 108 70 31 359 358 10 342 332 329 306 271 251 254 257 260 257 251 245 240 242 244 241 240 239 238 240 244 243 238 235 233
251 164 181 197 168 197 253 255 233 223 223 225 234 240 243 251 247 241 241 239 247 235 174 161 227 249 255 251 237 202 190 211 211 224 233 230 227 220 207 197 191 187 186 184 182 178 178 180 182 183 184 185 185 180 159 129 62 38 3 348 357 325 319 328 319 308 285 267 263 263 258 249 244 242 241 240 241 240 238 237 237 240 241 237 235 235
284 232 182 199 125 197 250 271 289 272 245 239 241 245 249 253 252 253 255 257 262 247 191 166 213 252 259 229 148 170 175 194 225 236 239 235 231 224 213 204 197 191 187 184 181 180 180 181 183 185 187 189 185 179 173 175 165 67 30 347 345 314 305 309 303 300 288 273 265 258 254 249 244 245 244 241 240 238 237 237 234 234 238 240 237 234
280 273 114 82 16 267 267 300 299 273 246 236 243 246 257 261 237 246 276 300 308 287 244 203 227 257 232 143 144 165 201 219 234 238 234 232 225 217 213 210 204 198 191 185 181 180 179 182 186 188 189 192 190 190 197 206 241 332 27 341 323 307 293 286 284 288 286 277 268 259 253 249 245 244 245 246 244 240 239 238 234 232 237 244 242 238
273 253 119 136 195 198 298 305 248 271 266 203 224 235 273 342 282 263 256 289 291 273 261 240 245 252 233 206 187 190 216 222 221 229 229 225 218 211 209 207 206 202 196 189 182 179 180 183 188 190 191 195 198 200 211 253 293 299 310 300 295 297 287 279 281 285 284 279 270 263 255 248 246 242 240 244 246 246 244 240 236 234 234 237 240 241
282 270 146 180 215 138 117 273 215 257 279 255 240 239 65 3 284 271 260 238 242 254 255 247 251 256 258 243 175 187 232 233 222 226 230 224 214 212 212 209 205 201 197 191 182 179 180 183 188 191 193 197 203 209 230 281 301 294 287 278 269 277 277 275 280 282 280 273 266 266 262 254 252 249 246 244 242 244 244 241 240 238 235 235 235 237
267 275 164 175 224 145 170 238 212 188 238 269 307 346 275 264 241 230 245 259 259 262 262 256 256 256 256 248 202 214 239 243 235 222 232 237 224 219 219 214 207 199 196 193 184 178 179 183 189 194 195 198 208 227 257 274 280 272 274 275 263 268 273 272 275 277 274 271 267 264 261 256 256 259 264 261 253 246 243 244 244 243 242 241 240 239
211 275 214 163 185 181 204 232 226 187 187 229 263 239 236 272 270 245 252 264 266 270 274 272 267 259 259 256 239 255 262 275 281 265 257 257 243 231 223 213 207 199 196 194 187 179 180 186 190 195 199 197 200 223 255 254 247 245 255 261 261 267 273 275 276 273 270 270 266 259 256 257 263 269 276 281 272 257 249 248 249 250 249 247 246 245
193 254 262 168 161 216 231 219 248 256 214 212 227 220 215 227 253 267 264 259 266 274 277 278 273 270 349 75 54 297 298 299 303 292 277 270 257 241 224 211 204 199 198 197 189 183 183 186 189 196 203 200 200 226 247 239 232 236 242 248 254 264 274 280 281 277 273 270 263 258 257 262 273 278 278 287 289 273 260 255 256 260 259 255 253 249
211 231 256 230 200 229 234 86 316 292 287 273 256 244 245 239 242 257 252 241 250 267 274 278 278 280 63 78 327 301 302 309 321 310 295 285 268 242 221 209 203 199 201 200 195 189 186 186 190 197 201 201 207 226 230 226 229 233 234 237 244 255 267 277 279 276 274 272 266 263 262 264 273 278 280 287 289 279 272 262 259 263 264 261 260 256
229 247 250 255 253 262 56 90 266 285 279 275 270 265 266 257 251 255 259 262 258 260 267 271 275 279 108 112 286 284 255 293 331 325 315 306 280 240 219 210 204 204 205 202 199 195 189 188 191 195 199 204 213 218 215 218 226 231 232 232 238 247 261 275 274 271 275 276 273 268 265 265 268 273 280 283 279 272 272 265 253 251 254 257 261 264
178 246 245 254 254 241 169 159 191 224 245 248 244 242 248 252 255 261 276 292 281 267 271 269 268 273 133 143 204 219 224 265 289 300 303 303 287 242 219 210 206 205 203 203 203 199 193 190 191 195 203 210 214 214 213 216 223 230 233 233 238 249 261 275 272 270 279 285 283 277 269 266 267 271 274 275 275 276 274 268 257 251 251 253 255 259
185 230 235 254 252 222 207 202 192 197 222 241 240 229 236 248 255 260 268 272 265 264 271 272 272 281 132 144 185 217 233 264 279 277 276 281 276 249 223 213 208 204 201 200 202 200 195 193 196 201 207 212 214 213 215 220 224 230 235 236 241 250 260 269 269 272 280 286 289 284 273 267 267 269 271 271 275 282 276 266 259 260 259 256 252 250
203 234 220 247 259 241 241 254 257 233 224 235 241 235 236 241 242 248 258 254 251 261 266 263 272 287 276 191 230 258 258 269 280 271 256 255 259 251 232 219 211 207 204 201 201 201 199 198 202 207 209 213 215 214 217 224 227 230 236 239 241 246 256 263 268 278 284 287 290 286 275 268 264 266 271 270 270 276 276 267 260 261 266 271 271 262
230 244 230 248 260 264 277 294 322 307 266 248 242 236 233 235 238 245 253 253 258 270 267 262 273 285 285 280 280 280 276 274 276 264 248 241 244 245 238 226 217 214 211 207 205 205 204 204 207 209 210 214 216 215 217 222 227 232 235 239 242 244 252 259 266 278 286 289 291 285 275 267 261 262 268 269 269 273 276 267 261 264 274 285 292 285
236 239 231 246 254 262 277 283 282 270 263 263 258 248 239 232 235 240 245 254 267 275 268 271 284 284 284 290 289 285 282 278 272 262 254 253 250 243 236 227 221 219 216 212 210 210 209 208 207 208 211 213 216 216 215 220 228 233 234 237 242 246 250 258 266 275 280 285 288 284 276 269 264 262 263 266 267 266 272 274 271 275 279 286 298 299
244 247 228 236 252 260 267 271 269 260 258 261 261 259 253 241 237 240 245 252 259 264 268 279 288 285 287 293 293 293 291 283 280 276 268 260 252 242 234 227 222 220 217 213 212 212 212 210 208 209 209 211 215 215 214 220 228 232 233 235 241 247 250 253 260 268 274 279 281 283 280 272 267 268 270 271 263 260 274 289 291 293 290 289 300 310
244 249 211 228 257 264 260 260 261 259 261 260 256 255 254 250 246 245 247 251 254 259 266 274 280 283 287 290 291 294 292 282 278 275 264 253 246 239 232 227 224 222 218 214 213 212 212 212 211 209 207 209 214 213 212 220 226 229 232 235 240 244 245 244 251 260 265 268 272 279 282 277 278 285 286 281 270 272 284 287 291 302 300 296 301 319
225 223 186 218 258 264 256 249 249 254 263 266 261 256 253 251 249 247 247 249 253 257 261 267 274 279 282 284 280 274 271 266 259 257 254 250 246 237 231 229 226 224 220 217 214 212 212 213 212 209 208 209 211 211 213 220 225 227 231 235 238 240 239 241 248 255 256 258 264 273 279 279 286 290 285 281 282 288 290 287 290 297 296 292 294 317
214 226 202 222 256 265 252 244 253 259 263 265 264 258 251 249 247 245 243 241 244 252 259 264 268 274 283 289 280 267 262 256 251 253 255 250 242 235 235 234 230 225 221 218 214 211 210 211 211 209 209 211 210 210 215 221 224 226 230 232 233 235 236 240 246 249 250 253 257 260 263 272 280 281 280 282 287 290 288 284 284 285 286 288 286 300
213 229 231 231 252 265 253 247 268 275 266 264 263 253 247 246 244 244 242 238 238 245 256 262 263 274 290 297 287 276 269 259 255 257 258 253 245 240 241 240 234 226 220 216 212 210 209 210 210 211 211 212 212 212 217 222 223 225 226 224 225 226 230 238 244 246 247 250 254 256 261 270 276 277 280 286 291 292 290 282 273 269 276 283 279 276
219 230 243 238 247 265 266 260 272 270 263 262 222 173 237 251 252 254 253 246 240 238 243 254 263 273 280 282 282 283 280 274 266 259 257 255 248 244 245 244 238 228 220 215 211 208 208 209 211 213 213 213 212 212 216 221 222 220 217 215 219 222 227 237 244 243 244 247 250 255 264 272 277 280 284 292 299 298 292 280 267 259 267 274 269 262
221 226 239 240 245 267 284 279 265 265 265 263 171 210 262 275 268 266 264 258 252 246 245 251 260 268 273 276 281 283 281 278 270 258 254 249 243 244 246 243 236 227 219 214 209 207 208 209 211 212 213 212 210 209 210 212 213 211 208 210 215 219 226 236 242 241 242 246 251 257 267 272 277 285 291 299 305 303 290 275 261 246 253 261 252 248
224 223 233 243 241 253 267 257 256 272 297 284 262 239 171 245 246 252 263 260 254 249 245 248 256 263 270 276 280 281 280 278 270 258 249 240 234 236 240 240 234 224 217 212 209 207 208 210 211 212 212 210 207 206 205 204 205 203 204 209 215 220 226 232 239 241 240 245 253 259 266 273 281 289 296 303 306 302 289 272 257 231 221 242 237 228
228 225 226 237 234 239 253 254 263 281 286 277 264 218 162 199 213 280 299 284 265 253 242 242 252 258 265 273 279 281 273 264 261 250 233 228 229 227 229 233 228 218 213 211 208 208 210 211 210 211 211 206 204 204 204 204 204 204 206 211 216 222 225 229 240 243 240 246 254 258 266 276 286 294 300 306 304 292 278 264 253 227 201 223 227 221
230 227 219 228 219 212 249 264 266 270 273 277 220 155 152 149 89 359 309 294 269 243 231 231 241 250 261 263 254 236 228 245 259 235 186 204 220 218 218 219 213 207 205 204 204 207 211 211 208 208 206 203 203 204 205 207 208 208 210 213 218 223 226 232 242 243 243 249 251 252 266 278 288 298 304 306 295 278 268 255 240 221 191 198 212 218
224 225 222 233 227 209 239 260 258 260 272 287 215 162 156 143 96 311 294 287 160 145 171 198 212 249 281 260 205 201 226 255 271 83 115 180 206 206 209 207 202 199 196 197 201 206 209 209 205 204 204 203 203 206 211 212 210 210 213 216 219 224 229 237 243 243 246 250 244 246 267 281 284 297 304 300 284 274 266 244 222 206 186 174 194 214
213 222 224 229 231 225 235 249 254 260 264 265 236 167 153 138 25 298 280 257 122 128 148 161 149 297 276 182 190 219 256 282 317 48 79 197 202 199 204 203 200 199 195 197 200 201 205 208 205 202 204 206 207 212 218 218 214 214 217 219 221 225 231 240 244 243 245 247 244 256 279 289 280 290 299 284 265 269 234 200 209 185 179 176 182 201
205 219 224 228 233 230 230 242 257 262 252 245 236 190 156 139 287 266 256 109 109 133 165 165 150 139 149 167 221 256 292 324 348 34 92 213 209 205 206 202 201 200 197 198 199 195 197 203 204 205 208 208 209 216 222 221 219 219 218 218 221 225 234 243 244 240 240 242 244 257 282 292 284 283 283 257 248 253 213 186 189 169 172 184 180 184
212 215 219 228 235 232 230 241 253 260 260 251 229 189 166 183 249 240 245 46 78 166 207 184 180 168 163 178 277 300 324 341 316 299 242 226 226 211 201 199 200 198 194 197 200 197 195 198 202 205 208 209 211 221 225 220 215 215 215 216 221 228 238 242 237 233 235 239 240 241 261 285 292 282 239 239 243 230 209 187 175 171 175 182 174 169
212 212 222 222 222 230 235 234 244 260 219 156 156 159 174 206 251 271 316 2 64 201 237 207 195 220 213 228 283 296 296 294 293 295 263 236 230 214 201 199 199 198 197 200 203 201 196 197 199 201 205 209 215 227 230 219 209 209 213 217 223 231 236 233 228 231 232 234 238 232 235 269 291 272 215 228 230 211 204 189 169 164 166 168 166 161
208 212 234 226 201 216 228 217 228 261 167 156 163 176 196 210 240 334 294 280 289 284 274 259 254 255 252 266 279 274 272 269 275 285 265 242 232 217 208 202 197 199 202 201 201 201 198 198 200 201 207 214 220 229 229 216 207 207 210 215 223 225 224 219 219 227 229 227 234 233 224 232 240 205 204 217 211 198 200 185 169 169 171 167 164 162
211 215 253 254 210 219 244 243 239 252 188 181 203 236 212 216 238 267 272 275 278 277 278 275 266 254 247 261 270 270 267 259 255 263 253 236 227 216 212 207 201 202 205 203 202 204 203 202 203 206 212 218 222 227 222 208 203 205 206 214 221 213 209 213 215 219 226 228 231 228 221 214 200 191 199 207 197 194 202 189 175 181 182 175 170 168
248 247 269 272 231 229 249 259 251 243 221 208 223 238 235 238 249 255 262 269 271 273 276 273 268 257 243 243 248 256 265 261 252 247 235 221 217 210 208 207 201 203 209 209 209 207 204 202 205 210 215 218 220 219 208 196 196 203 208 216 216 205 204 212 215 217 224 229 227 219 214 213 204 194 198 203 197 197 199 188 189 196 188 178 177 176
249 247 248 249 239 224 236 245 242 239 237 232 234 239 241 246 250 248 250 256 265 280 282 274 266 256 245 240 240 243 254 261 254 243 225 209 210 210 209 206 198 199 216 218 214 209 204 201 206 212 213 212 209 203 193 189 195 205 210 211 208 205 207 211 214 219 222 221 218 212 207 207 205 197 195 198 201 204 200 189 191 196 190 180 181 181
272 292 255 238 234 232 243 251 244 240 240 237 239 242 234 224 219 214 213 220 243 297 315 321 300 265 247 241 239 240 245 249 249 243 228 214 211 215 218 213 201 194 204 216 215 210 206 205 210 210 204 199 199 196 193 195 201 205 205 204 204 204 206 207 212 219 219 215 213 209 204 206 208 203 196 198 202 203 201 193 187 190 192 187 182 181
309 308 267 244 238 238 246 250 245 247 250 232 222 223 208 189 180 178 188 201 228 304 316 336 346 328 278 249 237 236 241 244 245 243 232 223 222 224 222 218 210 202 197 200 205 207 208 211 210 201 194 194 195 195 198 203 206 204 201 201 203 202 202 208 215 217 215 212 210 207 205 206 208 202 197 200 204 198 196 196 187 182 187 188 182 182
268 273 269 260 240 227 246 275 269 260 257 221 192 197 189 179 180 190 202 214 244 287 302 314 330 341 331 286 249 235 234 239 244 245 239 232 231 233 225 216 213 208 200 192 191 196 201 204 200 193 191 195 196 198 205 210 211 210 208 205 204 202 201 206 212 212 210 209 208 208 207 204 202 199 196 199 202 196 201 205 194 183 185 189 186 184
228 238 251 257 260 273 316 346 340 305 278 283 301 273 238 217 229 244 240 242 267 296 312 313 311 320 328 319 282 245 235 235 238 246 249 242 235 232 226 218 215 210 203 195 189 192 195 195 194 193 194 198 199 205 214 217 216 217 217 209 204 203 201 203 207 208 207 206 206 208 206 200 198 198 196 197 197 189 193 206 201 193 194 195 191 187
Height
1517 1517 1517 1515 1513 1513 1514 1515 1514 1514 1514 1514 1514 1514 1514 1514 1512 1512 1515 1517 1518 1520 1516 1514 1514 1513 1517 1521 1522 1525 1527 1529 1533 1535 1538 1540 1543 1544 1545 1546 1547 1549 1550 1551 1551 1551 1550 1550 1550 1551 1551 1552 1552 1553 1553 1553 1553 1553 1554 1554 1555 1556 1556 1558 1559 1560 1560 1561 1562 1562 1562 1563 1564 1564 1565 1565 1566 1567 1569 1570 1571 1571 1572 1573 1573 1574
1517 1516 1517 1517 1516 1518 1518 1518 1518 1517 1516 1516 1515 1514 1514 1513 1511 1513 1518 1518 1518 1519 1514 1513 1515 1513 1516 1520 1521 1524 1526 1528 1531 1534 1537 1539 1543 1544 1544 1546 1547 1549 1550 1551 1551 1550 1550 1549 1549 1550 1551 1552 1552 1553 1553 1553 1553 1553 1553 1554 1554 1555 1555 1556 1557 1559 1559 1560 1560 1560 1561 1562 1563 1563 1564 1564 1565 1566 1567 1568 1569 1570 1570 1571 1572 1573
1517 1517 1520 1520 1520 1520 1520 1519 1519 1517 1517 1516 1514 1514 1514 1511 1511 1515 1518 1516 1518 1518 1513 1513 1516 1515 1517 1519 1521 1523 1524 1528 1531 1533 1535 1539 1541 1543 1544 1545 1546 1548 1549 1550 1550 1550 1550 1549 1549 1550 1551 1551 1552 1552 1553 1553 1553 1553 1553 1554 1554 1554 1554 1555 1556 1557 1558 1558 1558 1559 1560 1561 1561 1562 1563 1563 1564 1564 1565 1566 1567 1568 1569 1569 1570 1571
1517 1520 1521 1521 1522 1520 1519 1519 1518 1516 1516 1515 1513 1514 1513 1511 1514 1517 1516 1516 1517 1515 1512 1513 1514 1515 1519 1521 1521 1523 1524 1528 1533 1533 1535 1538 1540 1542 1543 1544 1545 1546 1548 1548 1549 1549 1549 1550 1550 1550 1550 1551 1551 1552 1552 1553 1553 1553 1553 1553 1553 1554 1554 1554 1555 1556 1557 1557 1557 1558 1558 1559 1559 1560 1560 1561 1561 1562 1563 1563 1564 1566 1566 1567 1568 1569
1518 1522 1523 1523 1522 1519 1518 1519 1518 1515 1514 1514 1513 1513 1513 1512 1515 1515 1515 1516 1516 1515 1514 1513 1517 1519 1521 1523 1521 1522 1524 1527 1530 1531 1533 1536 1539 1541 1542 1543 1544 1545 1547 1547 1548 1549 1549 1550 1550 1550 1550 1550 1551 1552 1552 1552 1552 1552 1553 1553 1553 1553 1553 1553 1554 1555 1555 1556 1556 1556 1557 1557 1557 1557 1558 1558 1559 1560 1560 1561 1563 1564 1565 1566 1567 1567
1519 1524 1523 1522 1521 1519 1519 1516 1516 1517 1514 1516 1517 1516 1516 1515 1515 1515 1516 1516 1517 1519 1514 1513 1525 1525 1518 1520 1520 1522 1524 1526 1528 1529 1532 1535 1536 1539 1541 1542 1543 1544 1545 1546 1547 1548 1549 1550 1550 1550 1550 1551 1551 1551 1551 1551 1552 1552 1552 1553 1553 1553 1553 1553 1553 1553 1554 1554 1555 1555 1555 1555 1555 1555 1556 1556 1557 1558 1559 1560 1561 1562 1563 1564 1564 1565
1520 1524 1523 1521 1520 1519 1519 1516 1517 1519 1517 1519 1519 1517 1518 1516 1515 1516 1516 1516 1518 1519 1512 1512 1524 1523 1516 1516 1517 1521 1525 1525 1528 1529 1531 1534 1535 1536 1538 1539 1541 1542 1544 1545 1546 1548 1548 1549 1550 1550 1550 1551 1551 1551 1551 1551 1551 1551 1552 1552 1552 1553 1553 1553 1553 1552 1552 1553 1553 1554 1554 1554 1554 1554 1554 1554 1555 1556 1557 1558 1559 1559 1561 1561 1562 1563
1522 1524 1523 1522 1521 1520 1520 1517 1518 1520 1520 1520 1517 1518 1518 1516 1517 1516 1515 1516 1514 1515 1516 1514 1518 1521 1517 1512 1511 1519 1527 1528 1528 1531 1532 1533 1533 1533 1535 1537 1539 1541 1542 1544 1546 1547 1548 1549 1550 1550 1550 1551 1551 1551 1550 1551 1551 1551 1551 1551 1552 1552 1552 1552 1552 1552 1552 1552 1552 1552 1552 1552 1552 1552 1552 1553 1553 1554 1555 1556 1556 1557 1559 1560 1560 1561
1523 1523 1523 1523 1522 1520 1517 1517 1518 1520 1521 1520 1518 1519 1518 1516 1517 1515 1516 1517 1511 1516 1522 1514 1515 1525 1518 1508 1508 1515 1523 1525 1524 1527 1529 1529 1529 1531 1533 1535 1537 1539 1541 1543 1545 1546 1547 1548 1549 1549 1550 1550 1550 1550 1550 1550 1550 1550 1551 1551 1551 1551 1551 1551 1552 1551 1551 1551 1551 1551 1551 1551 1551 1551 1551 1551 1552 1552 1552 1553 1553 1554 1555 1557 1559 1559
1524 1525 1526 1524 1523 1520 1517 1518 1521 1521 1521 1520 1520 1519 1517 1517 1516 1514 1516 1514 1512 1523 1527 1513 1512 1524 1519 1510 1511 1517 1520 1519 1518 1520 1523 1524 1526 1529 1531 1533 1535 1537 1539 1541 1543 1545 1546 1547 1548 1548 1549 1549 1549 1549 1549 1549 1549 1550 1550 1550 1550 1550 1550 1550 1550 1550 1550 1550 1549 1549 1549 1549 1549 1549 1550 1550 1550 1550 1551 1551 1551 1552 1552 1553 1557 1558
1525 1526 1527 1526 1524 1522 1521 1522 1522 1523 1522 1521 1521 1518 1518 1516 1513 1514 1513 1511 1519 1530 1527 1514 1509 1517 1521 1511 1507 1514 1517 1515 1515 1517 1520 1522 1524 1527 1529 1531 1533 1535 1538 1540 1542 1543 1544 1545 1546 1547 1548 1549 1549 1549 1549 1548 1548 1549 1549 1549 1550 1549 1549 1549 1549 1549 1548 1548 1548 1548 1548 1548 1548 1548 1548 1548 1548 1548 1549 1549 1549 1550 1550 1551 1554 1555
1524 1525 1524 1524 1526 1525 1523 1523 1522 1523 1523 1521 1519 1518 1522 1520 1516 1520 1516 1515 1529 1532 1521 1513 1509 1516 1524 1511 1499 1504 1511 1511 1511 1513 1516 1518 1520 1523 1526 1529 1531 1533 1535 1538 1540 1541 1542 1544 1545 1546 1548 1548 1548 1548 1548 1547 1547 1548 1548 1548 1548 1548 1547 1547 1547 1547 1547 1547 1546 1546 1546 1546 1546 1546 1546 1546 1547 1547 1547 1548 1548 1549 1549 1550 1551 1551
1520 1522 1523 1525 1526 1525 1524 1522 1522 1522 1520 1520 1519 1520 1527 1528 1526 1531 1528 1523 1528 1523 1513 1511 1513 1517 1519 1506 1498 1502 1508 1509 1509 1510 1512 1514 1517 1521 1524 1526 1528 1531 1533 1535 1537 1539 1540 1542 1543 1545 1546 1547 1547 1547 1546 1546 1546 1546 1546 1547 1547 1547 1546 1546 1546 1546 1546 1545 1545 1545 1544 1544 1544 1545 1545 1545 1545 1546 1546 1546 1547 1547 1548 1548 1547 1547
1521 1522 1523 1524 1525 1524 1524 1523 1524 1523 1519 1519 1519 1522 1529 1530 1533 1539 1535 1527 1523 1516 1510 1511 1517 1520 1513 1502 1498 1502 1507 1509 1510 1511 1513 1515 1516 1519 1522 1525 1526 1528 1530 1533 1534 1536 1538 1540 1542 1543 1544 1545 1545 1545 1545 1544 1545 1545 1545 1545 1545 1545 1545 1545 1545 1544 1544 1544 1544 1543 1543 1543 1543 1543 1543 1543 1543 1544 1544 1544 1544 1545 1545 1545 1544 1545
1528 1528 1523 1522 1524 1524 1522 1521 1523 1522 1519 1516 1514 1519 1523 1523 1534 1543 1534 1525 1523 1516 1512 1516 1521 1519 1513 1506 1502 1503 1507 1510 1511 1512 1514 1515 1516 1518 1520 1523 1524 1525 1528 1530 1531 1534 1535 1537 1539 1541 1542 1543 1543 1543 1543 1543 1543 1543 1544 1544 1544 1544 1544 1544 1544 1543 1543 1543 1542 1542 1541 1541 1541 1541 1541 1541 1541 1541 1541 1542 1542 1542 1542 1542 1542 1542
1530 1528 1522 1523 1524 1523 1522 1521 1522 1521 1521 1517 1513 1519 1521 1517 1525 1536 1531 1525 1526 1524 1519 1519 1517 1508 1504 1506 1504 1505 1508 1508 1510 1512 1512 1515 1515 1517 1519 1520 1522 1524 1525 1527 1529 1531 1533 1535 1537 1538 1540 1540 1541 1541 1541 1541 1541 1541 1542 1542 1542 1543 1543 1543 1543 1542 1542 1542 1541 1541 1540 1539 1539 1539 1539 1539 1539 1539 1539 1539 1539 1539 1540 1540 1540 1540
1528 1524 1520 1523 1524 1523 1524 1522 1522 1523 1523 1520 1518 1520 1518 1513 1516 1525 1529 1528 1531 1534 1524 1514 1512 1503 1500 1503 1501 1504 1507 1506 1509 1511 1510 1513 1514 1515 1517 1517 1519 1521 1523 1525 1526 1528 1531 1533 1535 1536 1537 1538 1538 1539 1539 1539 1539 1539 1540 1541 1541 1541 1541 1541 1541 1541 1541 1540 1540 1539 1539 1538 1538 1537 1537 1537 1537 1537 1537 1537 1537 1537 1538 1538 1538 1538
1527 1524 1519 1522 1523 1524 1525 1524 1522 1522 1521 1520 1520 1518 1515 1516 1518 1521 1529 1532 1531 1533 1522 1510 1511 1510 1508 1508 1503 1503 1507 1505 1506 1508 1509 1511 1512 1513 1514 1515 1517 1518 1521 1523 1524 1526 1528 1530 1533 1534 1535 1536 1536 1537 1537 1537 1537 1538 1538 1539 1540 1540 1539 1539 1539 1539 1539 1538 1538 1538 1537 1537 1536 1536 1535 1535 1535 1535 1535 1535 1535 1535 1535 1535 1536 1536
1527 1526 1520 1520 1522 1523 1524 1524 1523 1522 1520 1519 1519 1517 1518 1525 1527 1524 1531 1536 1532 1532 1524 1511 1510 1511 1509 1506 1503 1502 1505 1504 1503 1505 1507 1508 1509 1511 1512 1513 1515 1516 1519 1522 1522 1524 1526 1528 1530 1532 1533 1534 1534 1535 1535 1535 1536 1537 1537 1537 1538 1538 1538 1538 1537 1537 1537 1537 1536 1536 1536 1535 1535 1534 1534 1533 1533 1532 1532 1533 1533 1533 1533 1533 1533 1533
1526 1529 1524 1519 1521 1523 1522 1522 1524 1522 1520 1520 1519 1517 1517 1523 1527 1524 1524 1526 1527 1530 1527 1518 1514 1509 1501 1496 1499 1502 1502 1503 1504 1505 1505 1506 1507 1509 1510 1511 1514 1515 1518 1520 1521 1522 1524 1526 1528 1529 1531 1532 1533 1533 1533 1534 1535 1536 1536 1536 1536 1537 1536 1536 1536 1535 1535 1535 1535 1535 1534 1534 1533 1533 1533 1532 1531 1530 1530 1530 1530 1530 1530 1530 1530 1530
1524 1529 1527 1521 1521 1524 1522 1520 1521 1520 1519 1519 1519 1519 1518 1519 1521 1522 1520 1516 1520 1526 1526 1525 1521 1508 1496 1495 1501 1503 1502 1504 1505 1505 1505 1505 1505 1507 1508 1510 1512 1514 1517 1518 1519 1520 1522 1525 1526 1527 1529 1531 1531 1531 1531 1533 1534 1534 1535 1535 1535 1535 1535 1535 1534 1534 1534 1533 1533 1533 1533 1532 1532 1531 1531 1530 1529 1529 1528 1528 1528 1528 1528 1528 1527 1527
1522 1526 1526 1521 1519 1521 1519 1518 1519 1520 1519 1517 1516 1516 1516 1516 1519 1526 1526 1516 1515 1521 1521 1523 1524 1508 1496 1500 1503 1502 1503 1504 1505 1506 1505 1504 1505 1506 1508 1509 1511 1513 1515 1517 1518 1520 1521 1522 1524 1526 1527 1528 1529 1529 1531 1532 1533 1533 1534 1534 1534 1534 1534 1534 1533 1533 1532 1532 1531 1531 1531 1531 1530 1530 1529 1528 1528 1527 1527 1527 1527 1526 1526 1526 1525 1525
1520 1523 1524 1522 1517 1516 1518 1520 1521 1521 1520 1518 1517 1515 1514 1515 1518 1526 1529 1520 1516 1518 1514 1517 1521 1508 1496 1500 1503 1503 1504 1505 1505 1506 1505 1504 1505 1506 1507 1508 1510 1511 1514 1516 1518 1519 1520 1521 1522 1524 1525 1526 1527 1528 1530 1531 1532 1532 1532 1532 1533 1533 1533 1533 1532 1532 1531 1530 1530 1530 1529 1529 1529 1528 1527 1527 1526 1525 1525 1525 1525 1524 1524 1524 1523 1522
1521 1522 1524 1523 1517 1514 1517 1519 1520 1521 1521 1519 1517 1515 1514 1516 1516 1519 1521 1518 1520 1519 1513 1517 1521 1507 1496 1499 1503 1504 1505 1504 1505 1505 1505 1505 1505 1505 1506 1507 1508 1510 1512 1514 1516 1518 1519 1520 1521 1523 1523 1524 1526 1527 1528 1529 1530 1531 1531 1531 1532 1532 1532 1531 1531 1531 1529 1529 1528 1528 1528 1527 1527 1526 1526 1525 1524 1523 1523 1523 1522 1522 1521 1521 1521 1521
1521 1521 1523 1524 1521 1520 1522 1522 1521 1522 1521 1518 1514 1513 1514 1514 1515 1517 1517 1518 1522 1519 1513 1519 1519 1504 1497 1500 1501 1501 1502 1502 1503 1503 1503 1504 1504 1504 1506 1506 1507 1508 1510 1512 1514 1516 1517 1518 1519 1521 1522 1523 1525 1526 1527 1528 1529 1529 1529 1530 1530 1530 1530 1530 1530 1529 1528 1528 1527 1526 1526 1526 1525 1525 1524 1523 1523 1522 1521 1521 1520 1520 1519 1518 1518 1518
1517 1518 1520 1523 1524 1524 1523 1521 1520 1520 1519 1516 1514 1514 1515 1515 1516 1519 1518 1521 1523 1516 1511 1516 1514 1501 1495 1497 1498 1499 1499 1499 1500 1501 1501 1502 1503 1503 1504 1505 1506 1507 1508 1510 1512 1514 1515 1516 1517 1519 1520 1522 1523 1524 1525 1526 1527 1528 1528 1528 1529 1529 1529 1529 1528 1528 1527 1526 1525 1525 1524 1524 1524 1523 1523 1522 1521 1521 1520 1519 1519 1518 1517 1516 1516 1515
1515 1515 1516 1518 1518 1518 1517 1516 1516 1517 1517 1517 1516 1515 1515 1515 1515 1517 1520 1520 1517 1513 1511 1509 1507 1502 1498 1496 1497 1498 1497 1496 1497 1498 1498 1499 1501 1502 1503 1504 1504 1505 1506 1508 1510 1512 1513 1514 1515 1517 1518 1520 1521 1522 1523 1524 1525 1526 1526 1527 1527 1527 1527 1527 1527 1526 1526 1525 1524 1523 1523 1522 1522 1522 1521 1521 1520 1519 1519 1518 1517 1516 1515 1514 1514 1513
1515 1516 1515 1515 1515 1514 1513 1514 1514 1516 1516 1515 1514 1513 1513 1513 1515 1517 1519 1514 1510 1515 1513 1503 1501 1504 1500 1496 1496 1495 1494 1494 1494 1495 1496 1497 1499 1500 1501 1502 1503 1503 1504 1506 1507 1509 1511 1512 1513 1515 1517 1518 1519 1520 1521 1522 1523 1524 1524 1525 1526 1526 1526 1525 1525 1525 1524 1523 1523 1522 1521 1521 1521 1520 1520 1519 1519 1518 1517 1516 1515 1514 1513 1513 1512 1512
1513 1513 1511 1513 1515 1512 1511 1512 1512 1514 1515 1513 1513 1513 1511 1511 1513 1515 1515 1510 1508 1514 1510 1501 1501 1502 1497 1494 1493 1492 1491 1492 1493 1494 1495 1496 1497 1498 1499 1500 1501 1501 1502 1503 1505 1507 1508 1510 1511 1513 1515 1516 1517 1518 1519 1520 1521 1522 1523 1523 1524 1524 1525 1524 1524 1524 1523 1523 1522 1521 1520 1520 1520 1519 1518 1518 1518 1517 1516 1515 1514 1513 1512 1511 1511 1510
1511 1510 1508 1513 1515 1511 1509 1511 1511 1512 1513 1512 1511 1511 1509 1509 1509 1509 1509 1506 1506 1507 1503 1500 1501 1499 1494 1492 1491 1490 1491 1492 1493 1494 1494 1495 1495 1496 1496 1497 1498 1499 1500 1500 1502 1504 1506 1508 1509 1511 1512 1513 1515 1516 1517 1518 1519 1520 1521 1522 1522 1523 1523 1523 1523 1522 1522 1522 1521 1520 1520 1519 1519 1518 1518 1518 1517 1516 1515 1515 1513 1512 1511 1510 1510 1509
1512 1509 1508 1512 1514 1510 1506 1507 1509 1511 1511 1510 1509 1507 1506 1506 1506 1505 1504 1503 1504 1503 1499 1499 1502 1497 1491 1489 1487 1489 1490 1491 1491 1492 1492 1492 1493 1493 1494 1495 1495 1496 1497 1498 1499 1501 1504 1505 1507 1509 1510 1511 1513 1514 1515 1517 1518 1519 1520 1520 1521 1521 1521 1522 1521 1521 1521 1521 1520 1520 1519 1519 1518 1518 1518 1517 1517 1516 1515 1514 1512 1512 1511 1510 1509 1508
1511 1510 1509 1513 1516 1509 1503 1505 1508 1507 1508 1509 1506 1503 1503 1502 1502 1501 1500 1499 1500 1500 1498 1500 1500 1494 1487 1485 1486 1487 1488 1488 1489 1488 1489 1490 1490 1491 1492 1491 1492 1493 1494 1495 1497 1499 1501 1503 1505 1506 1508 1509 1511 1512 1514 1515 1516 1517 1517 1518 1519 1520 1520 1520 1520 1520 1520 1520 1519 1519 1519 1518 1518 1518 1517 1517 1516 1514 1513 1512 1511 1511 1510 1509 1509 1508
1507 1508 1508 1512 1516 1508 1502 1506 1507 1506 1509 1507 1498 1495 1496 1495 1495 1495 1495 1494 1495 1496 1498 1498 1494 1488 1484 1484 1485 1485 1485 1485 1485 1485 1486 1487 1487 1489 1489 1489 1489 1489 1490 1492 1494 1496 1498 1500 1502 1504 1506 1507 1509 1510 1512 1513 1514 1515 1516 1517 1518 1518 1519 1519 1519 1519 1519 1519 1519 1518 1518 1518 1517 1517 1516 1515 1514 1513 1511 1511 1510 1509 1509 1509 1508 1508
1504 1506 1505 1508 1513 1509 1502 1504 1508 1510 1510 1500 1489 1488 1491 1492 1493 1493 1492 1491 1490 1490 1491 1489 1485 1483 1483 1484 1484 1483 1482 1483 1483 1484 1485 1485 1486 1487 1487 1487 1487 1487 1488 1490 1492 1494 1496 1498 1500 1502 1504 1506 1507 1509 1510 1511 1512 1513 1514 1516 1517 1517 1517 1518 1518 1518 1518 1518 1518 1518 1517 1517 1517 1516 1515 1514 1512 1511 1510 1509 1509 1508 1508 1508 1508 1507
1503 1505 1505 1505 1510 1508 1502 1507 1516 1514 1501 1489 1485 1487 1489 1490 1490 1491 1489 1486 1486 1486 1485 1484 1482 1482 1481 1482 1481 1481 1481 1482 1482 1483 1483 1484 1484 1484 1485 1485 1485 1485 1486 1488 1489 1492 1494 1495 1498 1500 1501 1504 1505 1507 1509 1510 1511 1512 1513 1514 1515 1515 1516 1516 1516 1517 1517 1517 1517 1517 1517 1516 1516 1515 1514 1512 1510 1509 1508 1508 1507 1507 1507 1507 1508 1507
1501 1503 1504 1504 1507 1508 1507 1512 1514 1502 1487 1484 1485 1486 1488 1490 1490 1490 1489 1484 1481 1481 1481 1480 1480 1479 1479 1480 1480 1480 1480 1481 1481 1480 1480 1481 1482 1482 1483 1483 1484 1484 1485 1486 1487 1489 1491 1493 1495 1497 1499 1501 1503 1505 1507 1508 1510 1511 1512 1513 1514 1514 1515 1515 1515 1515 1515 1516 1516 1516 1516 1515 1514 1513 1512 1511 1509 1508 1507 1506 1506 1506 1506 1507 1507 1506
1496 1499 1503 1505 1505 1507 1508 1507 1500 1492 1487 1485 1483 1482 1485 1487 1486 1488 1490 1483 1476 1476 1477 1477 1477 1477 1478 1479 1479 1479 1480 1480 1478 1476 1476 1479 1480 1481 1481 1482 1482 1483 1483 1484 1486 1488 1490 1491 1493 1495 1498 1500 1502 1504 1505 1507 1508 1509 1510 1511 1512 1513 1513 1513 1514 1514 1514 1514 1514 1514 1514 1514 1513 1512 1511 1510 1508 1507 1506 1505 1505 1505 1506 1506 1507 1506
1492 1495 1500 1505 1504 1505 1508 1505 1500 1499 1494 1485 1479 1480 1482 1484 1484 1485 1488 1482 1473 1472 1474 1474 1475 1476 1477 1477 1478 1479 1479 1478 1474 1471 1473 1477 1478 1479 1480 1480 1481 1481 1482 1483 1485 1487 1488 1490 1492 1494 1496 1498 1500 1502 1503 1505 1506 1507 1509 1509 1510 1511 1511 1512 1513 1513 1513 1513 1513 1513 1513 1513 1512 1511 1510 1509 1507 1506 1505 1504 1505 1505 1505 1506 1506 1505
1492 1492 1494 1500 1503 1505 1508 1506 1502 1499 1490 1480 1477 1479 1482 1484 1484 1484 1486 1480 1470 1470 1474 1473 1474 1476 1476 1476 1477 1477 1477 1475 1470 1469 1474 1477 1477 1477 1478 1479 1479 1480 1480 1482 1484 1485 1487 1488 1491 1493 1494 1496 1498 1500 1501 1503 1504 1505 1507 1507 1508 1509 1510 1510 1511 1511 1512 1512 1512 1512 1511 1511 1510 1510 1509 1508 1507 1505 1504 1504 1504 1504 1505 1506 1506 1505
1493 1492 1492 1498 1501 1500 1502 1501 1495 1488 1482 1477 1477 1479 1481 1483 1483 1488 1491 1481 1469 1471 1474 1473 1473 1475 1475 1476 1477 1476 1475 1473 1470 1472 1475 1476 1475 1476 1477 1477 1478 1479 1479 1481 1482 1484 1486 1487 1489 1491 1492 1494 1496 1497 1499 1500 1502 1503 1504 1505 1506 1507 1508 1509 1509 1510 1510 1511 1510 1510 1509 1509 1509 1509 1508 1508 1507 1505 1504 1504 1504 1504 1505 1506 1506 1505
1490 1490 1490 1493 1493 1493 1497 1498 1490 1480 1474 1473 1475 1477 1480 1482 1486 1490 1487 1474 1468 1472 1473 1472 1474 1474 1474 1476 1476 1474 1473 1474 1474 1475 1475 1475 1475 1476 1476 1476 1477 1478 1479 1481 1481 1483 1484 1486 1487 1489 1491 1492 1494 1495 1496 1498 1499 1501 1502 1504 1505 1505 1506 1507 1508 1508 1509 1510 1510 1509 1507 1507 1508 1508 1508 1508 1507 1506 1505 1505 1505 1505 1505 1506 1506 1505
1487 1488 1487 1488 1487 1486 1489 1492 1490 1480 1470 1468 1472 1475 1478 1483 1485 1480 1473 1468 1470 1472 1472 1473 1474 1473 1474 1475 1474 1473 1474 1475 1475 1475 1475 1475 1476 1475 1475 1476 1476 1477 1478 1479 1480 1481 1483 1484 1486 1488 1489 1491 1492 1493 1494 1496 1498 1499 1501 1502 1503 1504 1505 1506 1506 1507 1508 1508 1509 1509 1507 1506 1506 1507 1508 1508 1507 1506 1505 1505 1505 1505 1506 1506 1506 1505
1480 1484 1483 1481 1481 1483 1485 1490 1492 1482 1469 1466 1471 1474 1477 1478 1474 1468 1466 1469 1471 1471 1472 1473 1473 1473 1474 1474 1473 1474 1474 1474 1475 1474 1474 1475 1475 1474 1475 1475 1475 1476 1477 1478 1479 1480 1481 1483 1484 1486 1487 1489 1490 1491 1492 1494 1496 1498 1499 1500 1501 1503 1504 1504 1505 1506 1506 1507 1508 1508 1508 1506 1505 1506 1508 1508 1507 1506 1506 1505 1505 1506 1506 1506 1506 1506
1472 1476 1476 1472 1473 1478 1481 1482 1479 1470 1464 1466 1468 1469 1471 1471 1468 1467 1469 1469 1469 1471 1472 1471 1471 1472 1473 1472 1472 1473 1473 1473 1474 1473 1473 1474 1473 1473 1474 1474 1474 1476 1476 1477 1478 1479 1480 1482 1483 1484 1486 1487 1488 1489 1490 1492 1494 1496 1497 1499 1500 1501 1502 1503 1504 1505 1505 1506 1506 1507 1507 1506 1505 1506 1508 1508 1507 1507 1506 1505 1505 1506 1506 1506 1507 1507
1468 1467 1469 1468 1467 1469 1469 1466 1463 1462 1463 1466 1466 1465 1467 1468 1468 1469 1469 1468 1469 1470 1470 1470 1470 1471 1471 1471 1471 1472 1471 1472 1473 1472 1472 1472 1472 1472 1473 1473 1474 1474 1475 1476 1477 1477 1479 1480 1481 1483 1484 1485 1486 1487 1489 1491 1493 1494 1496 1498 1499 1500 1501 1502 1503 1504 1504 1505 1505 1505 1506 1506 1506 1506 1507 1507 1507 1507 1506 1506 1506 1507 1507 1507 1507 1507
1466 1466 1468 1467 1465 1464 1463 1461 1461 1462 1463 1464 1464 1465 1466 1467 1467 1467 1468 1468 1468 1468 1468 1468 1468 1468 1469 1469 1469 1470 1470 1471 1471 1471 1471 1471 1471 1471 1472 1472 1472 1473 1473 1475 1475 1476 1477 1479 1480 1481 1482 1483 1485 1486 1487 1490 1492 1493 1495 1497 1498 1499 1500 1501 1502 1502 1503 1503 1504 1504 1505 1505 1506 1506 1506 1507 1507 1507 1507 1507 1507 1507 1507 1507 1507 1508
1467 1468 1468 1466 1464 1466 1464 1460 1458 1460 1461 1462 1463 1463 1464 1465 1465 1465 1466 1466 1466 1466 1466 1466 1466 1466 1467 1467 1467 1468 1469 1469 1470 1470 1470 1470 1470 1470 1470 1471 1471 1471 1472 1473 1473 1475 1476 1477 1478 1480 1481 1482 1483 1484 1486 1488 1490 1492 1494 1495 1497 1498 1499 1499 1500 1501 1501 1502 1502 1503 1504 1504 1505 1505 1505 1506 1507 1507 1507 1507 1507 1507 1507 1507 1507 1508
1471 1470 1467 1464 1463 1463 1461 1458 1457 1459 1460 1460 1461 1461 1461 1463 1463 1463 1464 1464 1464 1465 1465 1464 1464 1464 1464 1464 1465 1466 1466 1467 1468 1468 1469 1469 1469 1468 1469 1469 1469 1470 1470 1471 1472 1473 1475 1476 1477 1478 1479 1480 1482 1483 1485 1487 1489 1491 1493 1494 1495 1497 1497 1498 1499 1500 1500 1501 1501 1501 1502 1503 1503 1504 1505 1506 1506 1507 1507 1507 1507 1507 1507 1507 1508 1508
1477 1474 1467 1462 1461 1461 1459 1458 1458 1459 1458 1458 1460 1460 1460 1461 1462 1462 1463 1463 1463 1463 1463 1463 1463 1462 1462 1462 1463 1463 1464 1465 1465 1466 1467 1467 1467 1467 1467 1467 1468 1468 1469 1469 1470 1472 1474 1475 1476 1478 1479 1480 1481 1483 1484 1486 1488 1490 1491 1492 1494 1495 1496 1497 1497 1498 1499 1499 1500 1500 1501 1502 1502 1503 1504 1505 1506 1506 1506 1506 1506 1506 1507 1507 1508 1508
1477 1474 1467 1463 1462 1460 1459 1458 1459 1461 1460 1459 1459 1460 1460 1461 1461 1461 1462 1462 1462 1462 1462 1462 1462 1461 1460 1460 1460 1461 1462 1462 1463 1464 1465 1465 1466 1466 1465 1466 1466 1467 1467 1468 1469 1471 1472 1474 1475 1477 1479 1480 1481 1482 1483 1485 1487 1488 1489 1491 1492 1493 1495 1495 1496 1497 1498 1498 1498 1499 1499 1501 1502 1502 1503 1504 1505 1505 1504 1504 1504 1504 1505 1506 1506 1507
1472 1470 1469 1468 1464 1460 1460 1461 1461 1462 1461 1460 1461 1461 1461 1461 1461 1460 1461 1461 1461 1461 1460 1460 1460 1460 1459 1459 1458 1459 1459 1460 1461 1462 1462 1463 1464 1464 1464 1464 1464 1465 1466 1467 1468 1469 1471 1473 1474 1476 1478 1479 1480 1481 1482 1484 1485 1486 1488 1489 1491 1492 1493 1494 1495 1496 1496 1496 1497 1497 1498 1499 1501 1501 1502 1503 1503 1504 1504 1503 1503 1503 1503 1504 1505 1506